Time,TemperatureF,DewpointF,PressureIn,WindDirection,WindDirectionDegrees,WindSpeedMPH,WindSpeedGustMPH,Humidity,HourlyPrecipIn,Conditions,Clouds,dailyrainin,SoftwareType,DateUTC
2013-03-30 00:01:00,68.2,66.1,30.12,South,169,7.9,11.5,93,0.00,CLR,,0.00,WeatherDisplay:10.37,2013-03-30 05:01:00,
2013-03-30 00:06:00,68.2,66.1,30.12,SSE,150,6.2,12.7,93,0.00,CLR,,0.00,WeatherDisplay:10.37,2013-03-30 05:06:00,
2013-03-30 00:11:00,68.2,66.4,30.12,SSE,162,7.7,12.7,94,0.00,CLR,,0.00,WeatherDisplay:10.37,2013-03-30 05:11:00,
2013-03-30 00:17:00,68.2,66.4,30.12,SE,145,6.6,11.9,94,0.00,CLR,,0.00,WeatherDisplay:10.37,2013-03-30 05:17:00,
2013-03-30 00:22:00,68.1,66.3,30.12,SSE,147,8.2,14.2,94,0.00,CLR,,0.00,WeatherDisplay:10.37,2013-03-30 05:22:00,
2013-03-30 00:27:00,68.1,66.3,30.12,South,169,7.0,11.8,94,0.00,CLR,,0.00,WeatherDisplay:10.37,2013-03-30 05:27:00,
2013-03-30 00:32:00,68.1,66.3,30.11,SSE,155,6.7,15.0,94,0.00,CLR,,0.00,WeatherDisplay:10.37,2013-03-30 05:32:00,
2013-03-30 00:37:00,68.1,66.3,30.12,ESE,119,7.4,11.5,94,0.00,CLR,,0.00,WeatherDisplay:10.37,2013-03-30 05:37:00,
2013-03-30 00:42:00,68.1,66.3,30.12,SE,140,8.2,8.2,94,0.00,CLR,,0.00,WeatherDisplay:10.37,2013-03-30 05:42:00,
2013-03-30 00:47:00,68.1,66.3,30.12,ESE,117,8.2,13.8,94,0.00,CLR,,0.00,WeatherDisplay:10.37,2013-03-30 05:47:00,
2013-03-30 00:52:00,68.1,66.3,30.12,SSE,161,7.2,13.8,94,0.00,CLR,,0.00,WeatherDisplay:10.37,2013-03-30 05:52:00,
2013-03-30 00:57:00,67.9,66.1,30.12,SE,131,8.7,12.6,94,0.00,CLR,,0.00,WeatherDisplay:10.37,2013-03-30 05:57:00,
2013-03-30 01:03:00,68.0,66.2,30.12,SSE,147,7.6,12.7,94,0.00,CLR,,0.00,WeatherDisplay:10.37,2013-03-30 06:03:00,
2013-03-30 01:08:00,67.9,66.1,30.11,SSE,152,7.0,12.7,94,0.00,CLR,,0.00,WeatherDisplay:10.37,2013-03-30 06:08:00,
2013-03-30 01:13:00,68.0,66.5,30.11,SSE,167,6.9,10.4,95,0.00,CLR,,0.00,WeatherDisplay:10.37,2013-03-30 06:13:00,
2013-03-30 01:18:00,67.8,66.3,30.11,SSE,165,6.3,9.3,95,0.00,CLR,,0.00,WeatherDisplay:10.37,2013-03-30 06:18:00,
2013-03-30 01:23:00,67.8,66.3,30.12,SE,137,7.5,11.8,95,0.00,CLR,,0.00,WeatherDisplay:10.37,2013-03-30 06:23:00,
2013-03-30 01:28:00,67.8,66.3,30.12,SE,144,8.2,13.1,95,0.00,CLR,,0.00,WeatherDisplay:10.37,2013-03-30 06:28:00,
2013-03-30 01:33:00,67.7,66.2,30.12,SE,144,7.4,10.4,95,0.00,CLR,,0.00,WeatherDisplay:10.37,2013-03-30 06:33:00,
2013-03-30 01:38:00,67.7,66.2,30.11,SSE,157,7.5,12.7,95,0.00,CLR,,0.00,WeatherDisplay:10.37,2013-03-30 06:38:00,
2013-03-30 01:43:00,67.7,66.2,30.11,SE,137,8.0,11.9,95,0.00,CLR,,0.00,WeatherDisplay:10.37,2013-03-30 06:43:00,
2013-03-30 01:48:00,67.7,66.2,30.11,SE,126,7.6,15.0,95,0.00,CLR,,0.00,WeatherDisplay:10.37,2013-03-30 06:48:00,
2013-03-30 01:53:00,67.7,66.2,30.11,SSE,164,8.0,15.0,95,0.00,CLR,,0.00,WeatherDisplay:10.37,2013-03-30 06:53:00,
2013-03-30 01:58:00,67.4,66.2,30.11,ESE,120,7.9,13.8,96,0.00,CLR,,0.00,WeatherDisplay:10.37,2013-03-30 06:58:00,
2013-03-30 02:03:00,67.6,66.4,30.11,ESE,106,7.2,11.7,96,0.00,CLR,,0.00,WeatherDisplay:10.37,2013-03-30 07:03:00,
2013-03-30 02:08:00,67.4,66.2,30.11,SE,130,6.8,12.7,96,0.00,CLR,,0.00,WeatherDisplay:10.37,2013-03-30 07:08:00,
2013-03-30 02:13:00,67.4,66.2,30.11,SE,130,7.0,10.4,96,0.00,CLR,,0.00,WeatherDisplay:10.37,2013-03-30 07:13:00,
2013-03-30 02:18:00,67.4,66.2,30.10,SSE,152,7.4,12.7,96,0.00,CLR,,0.00,WeatherDisplay:10.37,2013-03-30 07:18:00,
2013-03-30 02:23:00,67.3,66.1,30.10,SE,137,7.9,11.5,96,0.00,CLR,,0.00,WeatherDisplay:10.37,2013-03-30 07:23:00,
2013-03-30 02:28:00,67.2,66.0,30.10,SE,143,5.8,11.7,96,0.00,CLR,,0.00,WeatherDisplay:10.37,2013-03-30 07:28:00,
2013-03-30 02:33:00,67.2,66.0,30.10,SSE,154,7.1,10.8,96,0.00,CLR,,0.00,WeatherDisplay:10.37,2013-03-30 07:33:00,
2013-03-30 02:38:00,67.2,66.0,30.10,SSE,167,6.8,9.8,96,0.00,CLR,,0.00,WeatherDisplay:10.37,2013-03-30 07:38:00,
2013-03-30 02:43:00,67.2,66.0,30.10,SE,124,5.7,9.8,96,0.00,CLR,,0.00,WeatherDisplay:10.37,2013-03-30 07:43:00,
2013-03-30 02:48:00,67.2,66.0,30.10,SSE,154,5.9,10.4,96,0.00,CLR,,0.00,WeatherDisplay:10.37,2013-03-30 07:48:00,
2013-03-30 02:53:00,67.2,66.0,30.09,SE,141,5.5,9.2,96,0.00,CLR,,0.00,WeatherDisplay:10.37,2013-03-30 07:53:00,
2013-03-30 02:58:00,67.1,65.9,30.09,ESE,123,4.7,10.6,96,0.00,CLR,,0.00,WeatherDisplay:10.37,2013-03-30 07:58:00,
2013-03-30 03:03:00,67.0,65.8,30.09,SE,143,5.1,9.2,96,0.00,CLR,,0.00,WeatherDisplay:10.37,2013-03-30 08:03:00,
2013-03-30 03:08:00,66.9,66.0,30.08,ESE,117,5.8,7.6,97,0.00,CLR,,0.00,WeatherDisplay:10.37,2013-03-30 08:08:00,
2013-03-30 03:13:00,67.0,66.1,30.08,SE,134,4.0,5.8,97,0.00,CLR,,0.00,WeatherDisplay:10.37,2013-03-30 08:13:00,
2013-03-30 03:18:00,67.0,66.1,30.08,SE,141,7.2,9.3,97,0.00,CLR,,0.00,WeatherDisplay:10.37,2013-03-30 08:18:00,
2013-03-30 03:23:00,67.0,66.1,30.08,SE,131,6.7,10.0,97,0.00,CLR,,0.00,WeatherDisplay:10.37,2013-03-30 08:23:00,
2013-03-30 03:28:00,67.0,66.1,30.08,SE,144,7.5,11.1,97,0.00,CLR,,0.00,WeatherDisplay:10.37,2013-03-30 08:28:00,
2013-03-30 03:33:00,66.9,66.0,30.08,SE,128,7.4,11.5,97,0.00,CLR,,0.00,WeatherDisplay:10.37,2013-03-30 08:33:00,
2013-03-30 03:38:00,66.9,66.0,30.08,SSE,160,6.5,10.4,97,0.00,CLR,,0.00,WeatherDisplay:10.37,2013-03-30 08:38:00,
2013-03-30 03:43:00,66.9,66.0,30.07,ESE,117,6.5,10.4,97,0.00,CLR,,0.00,WeatherDisplay:10.37,2013-03-30 08:43:00,
2013-03-30 03:48:00,66.9,66.0,30.07,SE,131,6.9,10.4,97,0.00,CLR,,0.00,WeatherDisplay:10.37,2013-03-30 08:48:00,
2013-03-30 03:53:00,67.0,66.1,30.07,SSE,155,7.6,11.9,97,0.00,CLR,,0.00,WeatherDisplay:10.37,2013-03-30 08:53:00,
2013-03-30 03:58:00,66.8,65.9,30.07,SSE,167,7.8,11.7,97,0.00,CLR,,0.00,WeatherDisplay:10.37,2013-03-30 08:58:00,
2013-03-30 04:03:00,66.8,65.9,30.07,SE,145,6.7,12.7,97,0.00,CLR,,0.00,WeatherDisplay:10.37,2013-03-30 09:03:00,
2013-03-30 04:08:00,66.8,66.2,30.07,SSE,154,7.8,11.5,98,0.00,CLR,,0.00,WeatherDisplay:10.37,2013-03-30 09:08:00,
2013-03-30 04:13:00,66.9,66.3,30.07,SE,124,6.5,12.7,98,0.00,CLR,,0.00,WeatherDisplay:10.37,2013-03-30 09:13:00,
2013-03-30 04:18:00,66.8,66.2,30.06,SSE,157,7.5,10.8,98,0.00,CLR,,0.00,WeatherDisplay:10.37,2013-03-30 09:18:00,
2013-03-30 04:23:00,66.9,66.3,30.06,SSE,164,7.3,10.4,98,0.00,CLR,,0.00,WeatherDisplay:10.37,2013-03-30 09:23:00,
2013-03-30 04:29:00,66.8,66.2,30.06,East,83,6.6,10.4,98,0.00,CLR,,0.00,WeatherDisplay:10.37,2013-03-30 09:29:00,
2013-03-30 04:34:00,66.8,66.2,30.06,SE,143,7.7,11.5,98,0.00,CLR,,0.00,WeatherDisplay:10.37,2013-03-30 09:34:00,
2013-03-30 04:39:00,66.8,66.2,30.06,SE,134,6.8,12.7,98,0.00,CLR,,0.00,WeatherDisplay:10.37,2013-03-30 09:39:00,
2013-03-30 04:44:00,66.7,66.1,30.06,SE,133,6.2,11.5,98,0.00,CLR,,0.00,WeatherDisplay:10.37,2013-03-30 09:44:00,
2013-03-30 04:49:00,66.8,66.2,30.06,South,169,5.8,9.3,98,0.00,CLR,,0.00,WeatherDisplay:10.37,2013-03-30 09:49:00,
2013-03-30 04:54:00,66.8,66.2,30.06,ESE,104,6.8,11.5,98,0.00,CLR,,0.00,WeatherDisplay:10.37,2013-03-30 09:54:00,
2013-03-30 04:59:00,66.7,66.1,30.05,SE,143,7.6,11.0,98,0.00,CLR,,0.00,WeatherDisplay:10.37,2013-03-30 09:59:00,
2013-03-30 05:04:00,66.6,66.0,30.05,South,185,5.5,11.6,98,0.00,CLR,,0.00,WeatherDisplay:10.37,2013-03-30 10:04:00,
2013-03-30 05:09:00,66.7,66.1,30.05,SSE,155,5.7,9.2,98,0.00,CLR,,0.00,WeatherDisplay:10.37,2013-03-30 10:09:00,
2013-03-30 05:14:00,66.7,66.1,30.05,SSE,157,9.2,12.7,98,0.00,CLR,,0.00,WeatherDisplay:10.37,2013-03-30 10:14:00,
2013-03-30 05:19:00,66.7,66.1,30.05,SSE,154,6.7,13.8,98,0.00,CLR,,0.00,WeatherDisplay:10.37,2013-03-30 10:19:00,
2013-03-30 05:24:00,66.7,66.1,30.06,SSE,162,7.3,13.8,98,0.00,CLR,,0.00,WeatherDisplay:10.37,2013-03-30 10:24:00,
2013-03-30 05:29:00,66.7,66.1,30.06,SE,143,5.9,13.8,98,0.00,CLR,,0.00,WeatherDisplay:10.37,2013-03-30 10:29:00,
2013-03-30 05:34:00,66.6,66.0,30.06,SSE,165,6.1,10.4,98,0.00,CLR,,0.00,WeatherDisplay:10.37,2013-03-30 10:34:00,
2013-03-30 05:39:00,66.5,65.9,30.06,SSE,147,6.5,11.5,98,0.00,CLR,,0.00,WeatherDisplay:10.37,2013-03-30 10:39:00,
2013-03-30 05:44:00,66.6,66.0,30.06,South,176,5.0,9.2,98,0.00,CLR,,0.00,WeatherDisplay:10.37,2013-03-30 10:44:00,
2013-03-30 05:49:00,66.6,66.0,30.06,SSE,148,6.5,11.5,98,0.00,CLR,,0.00,WeatherDisplay:10.37,2013-03-30 10:49:00,
2013-03-30 05:54:00,66.5,65.9,30.06,SE,124,7.5,10.4,98,0.00,CLR,,0.00,WeatherDisplay:10.37,2013-03-30 10:54:00,
2013-03-30 05:59:00,66.7,66.1,30.06,ESE,121,6.9,10.4,98,0.00,CLR,,0.00,WeatherDisplay:10.37,2013-03-30 10:59:00,
2013-03-30 06:04:00,66.7,66.1,30.07,SE,144,6.1,9.2,98,0.00,CLR,,0.00,WeatherDisplay:10.37,2013-03-30 11:04:00,
2013-03-30 06:09:00,66.8,66.2,30.07,SSE,160,7.0,10.6,98,0.00,CLR,,0.00,WeatherDisplay:10.37,2013-03-30 11:09:00,
2013-03-30 06:14:00,66.8,66.2,30.07,SSE,160,4.9,10.4,98,0.00,CLR,,0.00,WeatherDisplay:10.37,2013-03-30 11:14:00,
2013-03-30 06:19:00,66.8,66.2,30.07,SSE,157,6.3,9.2,98,0.00,CLR,,0.00,WeatherDisplay:10.37,2013-03-30 11:19:00,
2013-03-30 06:24:00,66.7,66.1,30.07,South,182,4.4,9.2,98,0.00,CLR,,0.00,WeatherDisplay:10.37,2013-03-30 11:24:00,
2013-03-30 06:29:00,66.7,66.1,30.07,SE,134,4.5,9.2,98,0.00,CLR,,0.00,WeatherDisplay:10.37,2013-03-30 11:29:00,
2013-03-30 06:34:00,66.7,66.1,30.07,ESE,120,4.7,7.4,98,0.00,CLR,,0.00,WeatherDisplay:10.37,2013-03-30 11:34:00,
2013-03-30 06:39:00,66.5,65.9,30.08,South,178,4.8,6.9,98,0.00,CLR,,0.00,WeatherDisplay:10.37,2013-03-30 11:39:00,
2013-03-30 06:44:00,66.6,66.0,30.07,SE,131,5.4,8.1,98,0.00,CLR,,0.00,WeatherDisplay:10.37,2013-03-30 11:44:00,
2013-03-30 06:49:00,66.5,65.9,30.08,SSE,158,6.4,9.2,98,0.00,CLR,,0.00,WeatherDisplay:10.37,2013-03-30 11:49:00,
2013-03-30 06:54:00,66.5,65.9,30.08,South,182,5.6,10.4,98,0.00,CLR,,0.00,WeatherDisplay:10.37,2013-03-30 11:54:00,
2013-03-30 06:59:00,66.7,66.1,30.08,SE,130,7.2,10.4,98,0.00,CLR,,0.00,WeatherDisplay:10.37,2013-03-30 11:59:00,
2013-03-30 07:04:00,66.7,66.1,30.07,SSE,148,6.2,10.4,98,0.00,CLR,,0.00,WeatherDisplay:10.37,2013-03-30 12:04:00,
2013-03-30 07:09:00,66.7,66.1,30.07,SE,134,7.7,12.7,98,0.00,CLR,,0.00,WeatherDisplay:10.37,2013-03-30 12:09:00,
2013-03-30 07:14:00,66.8,66.2,30.07,ESE,116,5.5,10.4,98,0.00,CLR,,0.00,WeatherDisplay:10.37,2013-03-30 12:14:00,
2013-03-30 07:19:00,66.8,66.2,30.07,SE,133,5.7,8.6,98,0.00,CLR,,0.00,WeatherDisplay:10.37,2013-03-30 12:19:00,
2013-03-30 07:24:00,66.7,66.1,30.07,South,178,6.3,10.6,98,0.00,CLR,,0.00,WeatherDisplay:10.37,2013-03-30 12:24:00,
2013-03-30 07:29:00,66.8,66.2,30.07,SE,144,6.2,10.4,98,0.00,CLR,,0.00,WeatherDisplay:10.37,2013-03-30 12:29:00,
2013-03-30 07:34:00,66.8,66.2,30.07,SSE,162,6.7,10.4,98,0.00,CLR,,0.00,WeatherDisplay:10.37,2013-03-30 12:34:00,
2013-03-30 07:39:00,66.9,66.3,30.07,SE,126,7.0,9.2,98,0.00,CLR,,0.00,WeatherDisplay:10.37,2013-03-30 12:39:00,
2013-03-30 07:44:00,66.9,66.3,30.07,ESE,121,5.9,9.2,98,0.00,CLR,,0.00,WeatherDisplay:10.37,2013-03-30 12:44:00,
2013-03-30 07:49:00,66.9,66.3,30.07,ESE,114,5.7,9.2,98,0.00,CLR,,0.00,WeatherDisplay:10.37,2013-03-30 12:49:00,
2013-03-30 07:54:00,67.0,66.4,30.07,East,93,8.1,11.9,98,0.00,CLR,,0.00,WeatherDisplay:10.37,2013-03-30 12:54:00,
2013-03-30 07:59:00,67.0,66.4,30.07,SSE,148,6.6,12.7,98,0.00,CLR,,0.00,WeatherDisplay:10.37,2013-03-30 12:59:00,
2013-03-30 08:04:00,67.1,66.5,30.07,SE,133,7.2,12.7,98,0.00,CLR,,0.00,WeatherDisplay:10.37,2013-03-30 13:04:00,
2013-03-30 08:09:00,67.2,66.6,30.07,SE,140,7.5,12.1,98,0.00,CLR,,0.00,WeatherDisplay:10.37,2013-03-30 13:09:00,
2013-03-30 08:14:00,67.3,66.7,30.07,SSE,154,7.2,12.7,98,0.00,CLR,,0.00,WeatherDisplay:10.37,2013-03-30 13:14:00,
2013-03-30 08:19:00,67.4,66.8,30.07,SE,140,6.1,9.3,98,0.00,CLR,,0.00,WeatherDisplay:10.37,2013-03-30 13:19:00,
2013-03-30 08:25:00,67.7,67.1,30.08,SSE,147,5.4,8.1,98,0.00,CLR,,0.00,WeatherDisplay:10.37,2013-03-30 13:25:00,
2013-03-30 08:30:00,67.9,67.3,30.08,SSE,147,6.7,10.4,98,0.00,CLR,,0.00,WeatherDisplay:10.37,2013-03-30 13:30:00,
2013-03-30 08:35:00,68.0,67.1,30.08,ESE,113,7.2,11.5,97,0.00,CLR,,0.00,WeatherDisplay:10.37,2013-03-30 13:35:00,
2013-03-30 08:40:00,68.1,67.2,30.08,East,100,5.0,9.2,97,0.00,CLR,,0.00,WeatherDisplay:10.37,2013-03-30 13:40:00,
2013-03-30 08:45:00,68.3,67.4,30.08,ESE,112,4.7,10.4,97,0.00,CLR,,0.00,WeatherDisplay:10.37,2013-03-30 13:45:00,
2013-03-30 08:50:00,68.4,67.5,30.09,SSE,147,4.3,8.1,97,0.00,CLR,,0.00,WeatherDisplay:10.37,2013-03-30 13:50:00,
2013-03-30 08:55:00,68.7,67.5,30.09,SSE,150,6.9,11.8,96,0.00,CLR,,0.00,WeatherDisplay:10.37,2013-03-30 13:55:00,
2013-03-30 09:00:00,68.9,67.7,30.09,SSE,147,6.1,10.4,96,0.00,CLR,,0.00,WeatherDisplay:10.37,2013-03-30 14:00:00,
2013-03-30 09:05:00,69.1,67.9,30.10,SE,124,5.3,10.4,96,0.00,CLR,,0.00,WeatherDisplay:10.37,2013-03-30 14:05:00,
2013-03-30 09:11:00,69.2,68.0,30.10,SE,130,5.8,9.3,96,0.00,CLR,,0.00,WeatherDisplay:10.37,2013-03-30 14:11:00,
2013-03-30 09:16:00,69.2,68.0,30.11,SE,141,4.7,6.9,96,0.00,CLR,,0.00,WeatherDisplay:10.37,2013-03-30 14:16:00,
2013-03-30 09:21:00,69.2,67.7,30.11,SE,128,3.9,5.8,95,0.00,CLR,,0.00,WeatherDisplay:10.37,2013-03-30 14:21:00,
2013-03-30 09:26:00,69.4,67.9,30.11,ESE,116,4.9,8.1,95,0.00,CLR,,0.00,WeatherDisplay:10.37,2013-03-30 14:26:00,
2013-03-30 09:32:00,69.2,67.7,30.11,South,175,6.0,10.4,95,0.00,CLR,,0.00,WeatherDisplay:10.37,2013-03-30 14:32:00,
2013-03-30 09:37:00,69.3,67.8,30.11,SE,127,5.9,8.3,95,0.00,CLR,,0.00,WeatherDisplay:10.37,2013-03-30 14:37:00,
2013-03-30 09:42:00,69.5,68.0,30.10,SE,143,7.4,10.1,95,0.00,CLR,,0.00,WeatherDisplay:10.37,2013-03-30 14:42:00,
2013-03-30 09:47:00,69.6,68.1,30.11,SSE,148,5.6,9.2,95,0.00,CLR,,0.00,WeatherDisplay:10.37,2013-03-30 14:47:00,
2013-03-30 09:52:00,69.8,68.3,30.11,SE,136,4.6,8.9,95,0.00,CLR,,0.00,WeatherDisplay:10.37,2013-03-30 14:52:00,
2013-03-30 09:57:00,70.1,68.3,30.10,SE,138,4.3,10.4,94,0.00,CLR,,0.00,WeatherDisplay:10.37,2013-03-30 14:57:00,
2013-03-30 10:02:00,70.3,68.2,30.11,SE,140,5.5,9.0,93,0.00,CLR,,0.00,WeatherDisplay:10.37,2013-03-30 15:02:00,
2013-03-30 10:07:00,70.6,68.2,30.10,SE,133,3.3,8.1,92,0.00,CLR,,0.00,WeatherDisplay:10.37,2013-03-30 15:07:00,
2013-03-30 10:12:00,71.0,68.6,30.10,SE,143,4.7,7.6,92,0.00,CLR,,0.00,WeatherDisplay:10.37,2013-03-30 15:12:00,
2013-03-30 10:17:00,71.3,68.5,30.10,ESE,121,6.2,8.7,91,0.00,CLR,,0.00,WeatherDisplay:10.37,2013-03-30 15:17:00,
2013-03-30 10:22:00,71.7,68.3,30.10,SE,133,6.7,11.5,89,0.00,CLR,,0.00,WeatherDisplay:10.37,2013-03-30 15:22:00,
2013-03-30 10:27:00,71.8,68.1,30.10,SSE,152,6.0,8.1,88,0.00,CLR,,0.00,WeatherDisplay:10.37,2013-03-30 15:27:00,
2013-03-30 10:33:00,71.8,67.7,30.10,SE,145,4.9,10.4,87,0.00,CLR,,0.00,WeatherDisplay:10.37,2013-03-30 15:33:00,
2013-03-30 10:38:00,71.7,67.6,30.09,ESE,121,5.6,10.6,87,0.00,CLR,,0.00,WeatherDisplay:10.37,2013-03-30 15:38:00,
2013-03-30 10:43:00,72.2,68.1,30.10,SE,128,4.3,9.2,87,0.00,CLR,,0.00,WeatherDisplay:10.37,2013-03-30 15:43:00,
2013-03-30 10:48:00,72.2,67.8,30.10,SSE,154,6.0,9.6,86,0.00,CLR,,0.00,WeatherDisplay:10.37,2013-03-30 15:48:00,
2013-03-30 10:53:00,72.1,67.7,30.10,SSE,164,4.5,9.2,86,0.00,CLR,,0.00,WeatherDisplay:10.37,2013-03-30 15:53:00,
2013-03-30 10:58:00,72.0,67.6,30.10,SE,137,5.3,8.1,86,0.00,CLR,,0.00,WeatherDisplay:10.37,2013-03-30 15:58:00,
2013-03-30 11:03:00,71.9,67.8,30.09,ESE,112,5.3,11.5,87,0.00,CLR,,0.00,WeatherDisplay:10.37,2013-03-30 16:03:00,
2013-03-30 11:08:00,72.0,67.6,30.09,ESE,114,6.9,10.4,86,0.00,CLR,,0.00,WeatherDisplay:10.37,2013-03-30 16:08:00,
2013-03-30 11:13:00,72.1,67.7,30.09,ESE,116,7.9,12.7,86,0.00,CLR,,0.00,WeatherDisplay:10.37,2013-03-30 16:13:00,
2013-03-30 11:18:00,72.1,67.7,30.09,ESE,121,7.8,11.5,86,0.00,CLR,,0.00,WeatherDisplay:10.37,2013-03-30 16:18:00,
2013-03-30 11:23:00,72.4,67.6,30.09,ESE,110,9.6,12.7,85,0.00,CLR,,0.00,WeatherDisplay:10.37,2013-03-30 16:23:00,
2013-03-30 11:28:00,72.6,67.5,30.09,ESE,107,8.7,11.6,84,0.00,CLR,,0.00,WeatherDisplay:10.37,2013-03-30 16:28:00,
2013-03-30 11:33:00,72.8,67.7,30.09,ESE,117,8.3,11.5,84,0.00,CLR,,0.00,WeatherDisplay:10.37,2013-03-30 16:33:00,
2013-03-30 11:38:00,72.8,67.3,30.09,East,100,8.1,11.5,83,0.00,CLR,,0.00,WeatherDisplay:10.37,2013-03-30 16:38:00,
2013-03-30 11:43:00,73.1,67.6,30.09,SE,138,6.0,11.5,83,0.00,CLR,,0.00,WeatherDisplay:10.37,2013-03-30 16:43:00,
2013-03-30 11:48:00,73.2,67.7,30.09,SE,134,7.5,11.6,83,0.00,CLR,,0.00,WeatherDisplay:10.37,2013-03-30 16:48:00,
2013-03-30 11:53:00,73.5,68.0,30.09,ESE,104,4.9,7.8,83,0.00,CLR,,0.00,WeatherDisplay:10.37,2013-03-30 16:53:00,
2013-03-30 11:58:00,73.5,67.7,30.08,SSE,165,8.6,13.1,82,0.00,CLR,,0.00,WeatherDisplay:10.37,2013-03-30 16:58:00,
2013-03-30 12:03:00,73.7,67.9,30.08,SSE,167,7.1,11.5,82,0.00,CLR,,0.00,WeatherDisplay:10.37,2013-03-30 17:03:00,
2013-03-30 12:08:00,73.9,67.7,30.08,SE,144,8.1,13.8,81,0.00,CLR,,0.00,WeatherDisplay:10.37,2013-03-30 17:08:00,
2013-03-30 12:13:00,73.7,67.9,30.08,SSE,164,8.3,12.7,82,0.00,CLR,,0.00,WeatherDisplay:10.37,2013-03-30 17:13:00,
2013-03-30 12:19:00,73.7,67.5,30.08,SSE,147,9.0,15.0,81,0.00,CLR,,0.00,WeatherDisplay:10.37,2013-03-30 17:19:00,
2013-03-30 12:24:00,73.7,67.5,30.07,SE,127,7.4,15.0,81,0.00,CLR,,0.00,WeatherDisplay:10.37,2013-03-30 17:24:00,
2013-03-30 12:29:00,73.6,67.4,30.07,SE,124,9.3,13.8,81,0.00,CLR,,0.00,WeatherDisplay:10.37,2013-03-30 17:29:00,
2013-03-30 12:34:00,73.5,68.0,30.07,SSE,147,10.4,16.1,83,0.00,CLR,,0.00,WeatherDisplay:10.37,2013-03-30 17:34:00,
2013-03-30 12:39:00,73.5,67.7,30.07,SSE,147,12.5,19.6,82,0.00,CLR,,0.00,WeatherDisplay:10.37,2013-03-30 17:39:00,
2013-03-30 12:44:00,73.4,67.9,30.07,SSE,154,9.6,16.1,83,0.00,CLR,,0.00,WeatherDisplay:10.37,2013-03-30 17:44:00,
2013-03-30 12:49:00,73.6,68.1,30.07,SSE,168,10.7,18.4,83,0.00,CLR,,0.00,WeatherDisplay:10.37,2013-03-30 17:49:00,
2013-03-30 12:54:00,73.7,67.9,30.07,South,186,9.0,13.8,82,0.00,CLR,,0.00,WeatherDisplay:10.37,2013-03-30 17:54:00,
2013-03-30 12:59:00,73.3,67.8,30.07,ESE,116,8.8,13.8,83,0.00,CLR,,0.00,WeatherDisplay:10.37,2013-03-30 17:59:00,
2013-03-30 13:04:00,72.9,68.1,30.06,SSE,147,10.3,16.0,85,0.00,CLR,,0.00,WeatherDisplay:10.37,2013-03-30 18:04:00,
2013-03-30 13:09:00,73.0,68.2,30.06,SSE,148,9.4,16.1,85,0.00,CLR,,0.00,WeatherDisplay:10.37,2013-03-30 18:09:00,
2013-03-30 13:14:00,73.6,68.5,30.06,SSE,164,10.7,15.1,84,0.00,CLR,,0.00,WeatherDisplay:10.37,2013-03-30 18:14:00,
2013-03-30 13:19:00,73.9,68.4,30.06,SSE,164,8.4,19.6,83,0.00,CLR,,0.00,WeatherDisplay:10.37,2013-03-30 18:19:00,
2013-03-30 13:24:00,74.3,68.4,30.06,South,181,11.4,17.3,82,0.00,CLR,,0.00,WeatherDisplay:10.37,2013-03-30 18:24:00,
2013-03-30 13:29:00,74.4,68.2,30.05,SSE,167,10.5,16.5,81,0.00,CLR,,0.00,WeatherDisplay:10.37,2013-03-30 18:29:00,
2013-03-30 13:34:00,74.6,68.4,30.05,South,175,9.7,16.1,81,0.00,CLR,,0.00,WeatherDisplay:10.37,2013-03-30 18:34:00,
2013-03-30 13:39:00,74.6,68.4,30.05,South,184,11.1,19.6,81,0.00,CLR,,0.00,WeatherDisplay:10.37,2013-03-30 18:39:00,
2013-03-30 13:44:00,74.7,68.5,30.05,SSE,162,12.0,19.1,81,0.00,CLR,,0.00,WeatherDisplay:10.37,2013-03-30 18:44:00,
2013-03-30 13:50:00,74.9,68.3,30.05,SSE,155,10.9,17.3,80,0.00,CLR,,0.00,WeatherDisplay:10.37,2013-03-30 18:50:00,
2013-03-30 13:55:00,74.9,68.7,30.05,SE,140,9.4,16.1,81,0.00,CLR,,0.00,WeatherDisplay:10.37,2013-03-30 18:55:00,
2013-03-30 14:01:00,75.0,68.4,30.05,SSE,160,11.7,17.3,80,0.00,CLR,,0.00,WeatherDisplay:10.37,2013-03-30 19:01:00,
2013-03-30 14:06:00,74.7,68.5,30.04,SSE,152,8.9,16.1,81,0.00,CLR,,0.00,WeatherDisplay:10.37,2013-03-30 19:06:00,
2013-03-30 14:11:00,74.9,68.7,30.04,ESE,123,8.7,16.1,81,0.00,CLR,,0.00,WeatherDisplay:10.37,2013-03-30 19:11:00,
2013-03-30 14:16:00,75.1,68.5,30.04,SSE,157,11.8,16.2,80,0.00,CLR,,0.00,WeatherDisplay:10.37,2013-03-30 19:16:00,
2013-03-30 14:21:00,75.0,68.4,30.03,South,169,11.2,19.3,80,0.00,CLR,,0.00,WeatherDisplay:10.37,2013-03-30 19:21:00,
2013-03-30 14:26:00,75.0,68.8,30.03,SSE,168,11.7,19.6,81,0.00,CLR,,0.00,WeatherDisplay:10.37,2013-03-30 19:26:00,
2013-03-30 14:32:00,75.1,68.9,30.03,SE,130,11.1,20.0,81,0.00,CLR,,0.00,WeatherDisplay:10.37,2013-03-30 19:32:00,
2013-03-30 14:37:00,75.2,68.6,30.03,SE,133,9.8,17.3,80,0.00,CLR,,0.00,WeatherDisplay:10.37,2013-03-30 19:37:00,
2013-03-30 14:42:00,75.1,68.9,30.03,SSE,164,12.7,16.1,81,0.00,CLR,,0.00,WeatherDisplay:10.37,2013-03-30 19:42:00,
2013-03-30 14:47:00,75.3,68.7,30.02,SE,143,11.9,17.5,80,0.00,CLR,,0.00,WeatherDisplay:10.37,2013-03-30 19:47:00,
2013-03-30 14:52:00,75.3,68.7,30.02,SE,134,9.0,13.8,80,0.00,CLR,,0.00,WeatherDisplay:10.37,2013-03-30 19:52:00,
2013-03-30 14:57:00,75.9,68.9,30.02,SSE,151,9.9,16.1,79,0.00,CLR,,0.00,WeatherDisplay:10.37,2013-03-30 19:57:00,
2013-03-30 15:02:00,76.1,68.7,30.01,ESE,112,9.9,15.0,78,0.00,CLR,,0.00,WeatherDisplay:10.37,2013-03-30 20:02:00,
2013-03-30 15:07:00,76.2,68.8,30.01,East,93,8.9,13.8,78,0.00,CLR,,0.00,WeatherDisplay:10.37,2013-03-30 20:07:00,
2013-03-30 15:12:00,76.4,68.3,30.00,ESE,113,12.5,17.9,76,0.00,CLR,,0.00,WeatherDisplay:10.37,2013-03-30 20:12:00,
2013-03-30 15:17:00,76.2,68.8,30.00,SE,134,10.1,18.4,78,0.00,CLR,,0.00,WeatherDisplay:10.37,2013-03-30 20:17:00,
2013-03-30 15:22:00,76.2,68.8,30.00,SE,133,10.6,16.1,78,0.00,CLR,,0.00,WeatherDisplay:10.37,2013-03-30 20:22:00,
2013-03-30 15:28:00,76.1,68.4,30.00,South,171,10.7,17.3,77,0.00,CLR,,0.00,WeatherDisplay:10.37,2013-03-30 20:28:00,
2013-03-30 15:33:00,76.1,68.7,30.00,South,172,11.7,17.3,78,0.00,CLR,,0.00,WeatherDisplay:10.37,2013-03-30 20:33:00,
2013-03-30 15:38:00,76.0,68.6,30.00,SSE,151,10.7,17.3,78,0.00,CLR,,0.00,WeatherDisplay:10.37,2013-03-30 20:38:00,
2013-03-30 15:43:00,75.9,68.5,29.99,SE,136,11.6,16.2,78,0.00,CLR,,0.00,WeatherDisplay:10.37,2013-03-30 20:43:00,
2013-03-30 15:48:00,75.9,68.5,29.99,SE,141,11.5,17.3,78,0.00,CLR,,0.00,WeatherDisplay:10.37,2013-03-30 20:48:00,
2013-03-30 15:53:00,75.7,68.4,29.99,South,176,10.7,16.1,78,0.00,CLR,,0.00,WeatherDisplay:10.37,2013-03-30 20:53:00,
2013-03-30 15:58:00,75.4,68.8,29.99,ESE,109,10.4,14.4,80,0.00,CLR,,0.00,WeatherDisplay:10.37,2013-03-30 20:58:00,
2013-03-30 16:03:00,75.6,69.0,29.99,East,86,9.9,18.4,80,0.00,CLR,,0.00,WeatherDisplay:10.37,2013-03-30 21:03:00,
2013-03-30 16:08:00,75.7,68.7,29.99,SE,144,8.6,16.1,79,0.00,CLR,,0.00,WeatherDisplay:10.37,2013-03-30 21:08:00,
2013-03-30 16:13:00,75.9,68.5,29.99,ENE,76,11.7,18.7,78,0.00,CLR,,0.00,WeatherDisplay:10.37,2013-03-30 21:13:00,
2013-03-30 16:18:00,76.1,68.7,29.99,SSE,154,10.5,16.1,78,0.00,CLR,,0.00,WeatherDisplay:10.37,2013-03-30 21:18:00,
2013-03-30 16:23:00,76.2,68.8,29.98,SSE,151,10.0,17.3,78,0.00,CLR,,0.00,WeatherDisplay:10.37,2013-03-30 21:23:00,
2013-03-30 16:28:00,76.1,68.7,29.98,SSE,165,10.0,16.1,78,0.00,CLR,,0.00,WeatherDisplay:10.37,2013-03-30 21:28:00,
2013-03-30 16:33:00,75.6,69.0,29.98,SE,128,9.9,15.7,80,0.00,CLR,,0.00,WeatherDisplay:10.37,2013-03-30 21:33:00,
2013-03-30 16:38:00,75.2,68.6,29.98,SSE,154,11.0,19.3,80,0.00,CLR,,0.00,WeatherDisplay:10.37,2013-03-30 21:38:00,
2013-03-30 16:43:00,75.3,69.1,29.98,SSE,158,11.5,16.1,81,0.00,CLR,,0.00,WeatherDisplay:10.37,2013-03-30 21:43:00,
2013-03-30 16:49:00,75.2,69.0,29.98,SSE,160,12.6,17.3,81,0.00,CLR,,0.00,WeatherDisplay:10.37,2013-03-30 21:49:00,
2013-03-30 16:54:00,75.0,69.1,29.98,SSE,154,11.7,21.1,82,0.00,CLR,,0.00,WeatherDisplay:10.37,2013-03-30 21:54:00,
2013-03-30 16:59:00,74.8,68.9,29.98,SSE,157,10.1,13.8,82,0.00,CLR,,0.00,WeatherDisplay:10.37,2013-03-30 21:59:00,
2013-03-30 17:04:00,74.7,69.2,29.98,ESE,113,10.3,16.1,83,0.00,CLR,,0.00,WeatherDisplay:10.37,2013-03-30 22:04:00,
2013-03-30 17:09:00,74.6,69.4,29.97,SSE,158,10.8,17.7,84,0.00,CLR,,0.00,WeatherDisplay:10.37,2013-03-30 22:09:00,
2013-03-30 17:14:00,74.9,69.4,29.97,East,97,11.8,18.4,83,0.00,CLR,,0.00,WeatherDisplay:10.37,2013-03-30 22:14:00,
2013-03-30 17:19:00,75.0,69.1,29.97,SE,128,11.9,18.2,82,0.00,CLR,,0.00,WeatherDisplay:10.37,2013-03-30 22:19:00,
2013-03-30 17:24:00,74.9,69.0,29.97,SSE,165,11.3,17.3,82,0.00,CLR,,0.00,WeatherDisplay:10.37,2013-03-30 22:24:00,
2013-03-30 17:29:00,74.6,69.1,29.97,SE,144,9.3,18.4,83,0.00,CLR,,0.00,WeatherDisplay:10.37,2013-03-30 22:29:00,
2013-03-30 17:34:00,74.2,69.1,29.97,ESE,123,10.5,18.4,84,0.00,CLR,,0.00,WeatherDisplay:10.37,2013-03-30 22:34:00,
2013-03-30 17:39:00,74.1,69.0,29.97,SE,130,12.4,18.4,84,0.00,CLR,,0.00,WeatherDisplay:10.37,2013-03-30 22:39:00,
2013-03-30 17:45:00,73.7,68.9,29.97,SSE,164,11.5,17.3,85,0.00,CLR,,0.00,WeatherDisplay:10.37,2013-03-30 22:45:00,
2013-03-30 17:50:00,73.7,69.2,29.97,SE,141,10.5,17.7,86,0.00,CLR,,0.00,WeatherDisplay:10.37,2013-03-30 22:50:00,
2013-03-30 17:55:00,73.7,69.2,29.96,SSE,147,11.1,19.8,86,0.00,CLR,,0.00,WeatherDisplay:10.37,2013-03-30 22:55:00,
2013-03-30 18:00:00,73.7,69.2,29.96,ESE,119,12.4,20.4,86,0.00,CLR,,0.00,WeatherDisplay:10.37,2013-03-30 23:00:00,
2013-03-30 18:05:00,73.6,69.5,29.96,ESE,119,9.9,17.3,87,0.00,CLR,,0.00,WeatherDisplay:10.37,2013-03-30 23:05:00,
2013-03-30 18:10:00,73.5,69.4,29.96,SSE,152,12.2,19.6,87,0.00,CLR,,0.00,WeatherDisplay:10.37,2013-03-30 23:10:00,
2013-03-30 18:15:00,73.5,69.7,29.96,SSE,165,10.2,20.8,88,0.00,CLR,,0.00,WeatherDisplay:10.37,2013-03-30 23:15:00,
2013-03-30 18:20:00,73.3,69.5,29.96,SE,145,13.0,20.7,88,0.00,CLR,,0.00,WeatherDisplay:10.37,2013-03-30 23:20:00,
2013-03-30 18:25:00,73.0,69.6,29.97,SE,133,9.3,20.7,89,0.00,CLR,,0.00,WeatherDisplay:10.37,2013-03-30 23:25:00,
2013-03-30 18:30:00,72.9,69.5,29.97,SSE,168,12.2,21.7,89,0.00,CLR,,0.00,WeatherDisplay:10.37,2013-03-30 23:30:00,
2013-03-30 18:35:00,72.6,69.5,29.97,SSE,155,9.8,17.3,90,0.00,CLR,,0.00,WeatherDisplay:10.37,2013-03-30 23:35:00,
2013-03-30 18:40:00,72.4,69.3,29.97,SE,143,10.3,18.7,90,0.00,CLR,,0.00,WeatherDisplay:10.37,2013-03-30 23:40:00,
2013-03-30 18:45:00,72.2,69.4,29.97,SSE,168,10.9,19.6,91,0.00,CLR,,0.00,WeatherDisplay:10.37,2013-03-30 23:45:00,
2013-03-30 18:50:00,72.0,69.5,29.96,SSE,150,11.4,20.7,92,0.00,CLR,,0.00,WeatherDisplay:10.37,2013-03-30 23:50:00,
2013-03-30 18:55:00,71.7,69.6,29.96,SSE,151,11.5,18.4,93,0.00,CLR,,0.00,WeatherDisplay:10.37,2013-03-30 23:55:00,
2013-03-30 19:00:00,71.6,69.8,29.96,SE,126,9.9,19.6,94,0.00,CLR,,0.00,WeatherDisplay:10.37,2013-03-31 00:00:00,
2013-03-30 19:05:00,71.5,70.0,29.97,SE,133,10.9,19.6,95,0.00,CLR,,0.00,WeatherDisplay:10.37,2013-03-31 00:05:00,
2013-03-30 19:10:00,71.3,69.8,29.97,SE,138,11.8,18.5,95,0.00,CLR,,0.00,WeatherDisplay:10.37,2013-03-31 00:10:00,
2013-03-30 19:15:00,71.1,69.9,29.97,SSE,151,11.3,18.4,96,0.00,CLR,,0.00,WeatherDisplay:10.37,2013-03-31 00:15:00,
2013-03-30 19:20:00,71.0,69.8,29.96,SE,134,11.4,18.4,96,0.00,CLR,,0.00,WeatherDisplay:10.37,2013-03-31 00:20:00,
2013-03-30 19:25:00,70.8,69.6,29.96,SE,143,11.2,17.3,96,0.00,CLR,,0.00,WeatherDisplay:10.37,2013-03-31 00:25:00,
2013-03-30 19:30:00,70.6,69.7,29.96,SE,136,9.3,15.0,97,0.00,CLR,,0.00,WeatherDisplay:10.37,2013-03-31 00:30:00,
2013-03-30 19:35:00,70.6,69.7,29.96,SSE,161,10.5,16.8,97,0.00,CLR,,0.00,WeatherDisplay:10.37,2013-03-31 00:35:00,
2013-03-30 19:40:00,70.5,69.6,29.96,SSE,151,11.2,16.9,97,0.00,CLR,,0.00,WeatherDisplay:10.37,2013-03-31 00:40:00,
2013-03-30 19:45:00,70.4,69.8,29.96,SE,127,11.2,17.3,98,0.00,CLR,,0.00,WeatherDisplay:10.37,2013-03-31 00:45:00,
2013-03-30 19:50:00,70.2,69.6,29.96,SE,130,10.2,17.3,98,0.00,CLR,,0.00,WeatherDisplay:10.37,2013-03-31 00:50:00,
2013-03-30 19:55:00,69.9,69.3,29.96,ESE,123,9.3,20.8,98,0.00,CLR,,0.00,WeatherDisplay:10.37,2013-03-31 00:55:00,
2013-03-30 20:00:00,69.8,69.2,29.96,SSE,157,12.2,18.4,98,0.00,CLR,,0.00,WeatherDisplay:10.37,2013-03-31 01:00:00,
2013-03-30 20:05:00,69.8,69.2,29.96,SSE,164,12.6,19.0,98,0.00,CLR,,0.00,WeatherDisplay:10.37,2013-03-31 01:05:00,
2013-03-30 20:10:00,69.6,69.3,29.96,ESE,117,10.7,18.4,99,0.00,CLR,,0.00,WeatherDisplay:10.37,2013-03-31 01:10:00,
2013-03-30 20:15:00,69.4,69.1,29.96,SSE,157,12.5,18.5,99,0.00,CLR,,0.00,WeatherDisplay:10.37,2013-03-31 01:15:00,
2013-03-30 20:20:00,69.4,69.1,29.96,SE,131,12.7,18.0,99,0.00,CLR,,0.00,WeatherDisplay:10.37,2013-03-31 01:20:00,
2013-03-30 20:25:00,69.4,69.1,29.96,SSE,151,10.6,17.3,99,0.00,CLR,,0.00,WeatherDisplay:10.37,2013-03-31 01:25:00,
2013-03-30 20:30:00,69.3,69.0,29.96,SSE,157,11.3,18.2,99,0.00,CLR,,0.00,WeatherDisplay:10.37,2013-03-31 01:30:00,
2013-03-30 20:35:00,69.3,69.0,29.96,SSE,168,12.1,18.4,99,0.00,CLR,,0.00,WeatherDisplay:10.37,2013-03-31 01:35:00,
2013-03-30 20:40:00,69.3,69.0,29.96,SSE,165,9.3,14.3,99,0.00,CLR,,0.00,WeatherDisplay:10.37,2013-03-31 01:40:00,
2013-03-30 20:45:00,69.2,68.9,29.96,South,172,9.4,16.1,99,0.00,CLR,,0.00,WeatherDisplay:10.37,2013-03-31 01:45:00,
2013-03-30 20:50:00,69.1,68.8,29.96,SE,143,10.9,16.5,99,0.00,CLR,,0.00,WeatherDisplay:10.37,2013-03-31 01:50:00,
2013-03-30 20:57:00,69.0,68.7,29.96,SE,136,11.3,18.4,99,0.00,CLR,,0.00,WeatherDisplay:10.37,2013-03-31 01:57:00,
2013-03-30 21:02:00,69.1,68.8,29.96,SSE,148,8.9,13.8,99,0.00,CLR,,0.00,WeatherDisplay:10.37,2013-03-31 02:02:00,
2013-03-30 21:07:00,69.1,68.8,29.97,ESE,110,10.1,13.8,99,0.00,CLR,,0.00,WeatherDisplay:10.37,2013-03-31 02:07:00,
2013-03-30 21:13:00,69.1,68.8,29.97,SSE,164,11.5,18.4,99,0.00,CLR,,0.00,WeatherDisplay:10.37,2013-03-31 02:13:00,
2013-03-30 21:18:00,69.1,68.8,29.97,SSE,148,11.4,17.3,99,0.00,CLR,,0.00,WeatherDisplay:10.37,2013-03-31 02:18:00,
2013-03-30 21:23:00,69.1,68.8,29.97,SE,137,10.3,17.7,99,0.00,CLR,,0.00,WeatherDisplay:10.37,2013-03-31 02:23:00,
2013-03-30 21:28:00,69.1,68.8,29.98,SSE,152,8.9,17.3,99,0.00,CLR,,0.00,WeatherDisplay:10.37,2013-03-31 02:28:00,
2013-03-30 21:33:00,69.2,69.2,29.98,SE,130,10.4,17.8,100,0.00,CLR,,0.00,WeatherDisplay:10.37,2013-03-31 02:33:00,
2013-03-30 21:38:00,69.1,69.1,29.98,SSE,167,10.1,16.7,100,0.00,CLR,,0.00,WeatherDisplay:10.37,2013-03-31 02:38:00,
2013-03-30 21:43:00,68.9,68.9,29.98,ESE,116,11.2,17.3,100,0.00,CLR,,0.00,WeatherDisplay:10.37,2013-03-31 02:43:00,
2013-03-30 21:48:00,69.0,69.0,29.98,SE,141,9.6,16.1,100,0.00,CLR,,0.00,WeatherDisplay:10.37,2013-03-31 02:48:00,
2013-03-30 21:53:00,68.9,68.9,29.98,SSE,152,10.5,15.3,100,0.00,CLR,,0.00,WeatherDisplay:10.37,2013-03-31 02:53:00,
2013-03-30 21:58:00,69.0,69.0,29.98,ESE,107,9.0,15.0,100,0.00,CLR,,0.00,WeatherDisplay:10.37,2013-03-31 02:58:00,
2013-03-30 22:03:00,69.0,69.0,29.99,SSE,168,9.9,16.1,100,0.00,CLR,,0.00,WeatherDisplay:10.37,2013-03-31 03:03:00,
2013-03-30 22:08:00,68.9,68.9,29.99,SSE,152,11.5,16.1,100,0.00,CLR,,0.00,WeatherDisplay:10.37,2013-03-31 03:08:00,
2013-03-30 22:13:00,68.9,68.9,29.99,ESE,114,11.1,17.3,100,0.00,CLR,,0.00,WeatherDisplay:10.37,2013-03-31 03:13:00,
2013-03-30 22:18:00,69.0,69.0,29.99,SSE,168,10.7,16.5,100,0.00,CLR,,0.00,WeatherDisplay:10.37,2013-03-31 03:18:00,
2013-03-30 22:23:00,69.0,69.0,29.99,SSE,151,9.2,13.1,100,0.00,CLR,,0.00,WeatherDisplay:10.37,2013-03-31 03:23:00,
2013-03-30 22:28:00,68.9,68.9,29.99,SE,138,10.5,15.3,100,0.00,CLR,,0.00,WeatherDisplay:10.37,2013-03-31 03:28:00,
2013-03-30 22:33:00,68.9,68.9,29.99,SSE,151,10.0,17.3,100,0.00,CLR,,0.00,WeatherDisplay:10.37,2013-03-31 03:33:00,
2013-03-30 22:38:00,69.0,69.0,29.99,SSE,165,12.4,18.8,100,0.00,CLR,,0.00,WeatherDisplay:10.37,2013-03-31 03:38:00,
2013-03-30 22:43:00,68.8,68.8,29.99,SSE,152,8.9,18.4,100,0.00,CLR,,0.00,WeatherDisplay:10.37,2013-03-31 03:43:00,
2013-03-30 22:48:00,69.0,69.0,29.99,South,179,11.3,18.4,100,0.00,CLR,,0.00,WeatherDisplay:10.37,2013-03-31 03:48:00,
2013-03-30 22:53:00,69.0,69.0,29.99,SSW,193,10.3,16.1,100,0.00,CLR,,0.00,WeatherDisplay:10.37,2013-03-31 03:53:00,
2013-03-30 22:58:00,69.0,69.0,29.99,SSE,155,10.5,15.0,100,0.00,CLR,,0.00,WeatherDisplay:10.37,2013-03-31 03:58:00,
2013-03-30 23:00:00,69.0,69.0,29.99,ESE,104,10.7,16.2,100,0.00,CLR,,0.00,WeatherDisplay:10.37,2013-03-31 04:00:00,
2013-03-30 23:01:00,68.9,68.9,29.99,SE,137,10.4,16.1,100,0.00,CLR,,0.00,WeatherDisplay:10.37,2013-03-31 04:01:00,
2013-03-30 23:02:00,68.9,68.9,29.99,SSE,147,9.2,15.0,100,0.00,CLR,,0.00,WeatherDisplay:10.37,2013-03-31 04:02:00,
2013-03-30 23:07:00,68.9,68.9,29.99,SSE,147,13.6,18.4,100,0.00,CLR,,0.00,WeatherDisplay:10.37,2013-03-31 04:07:00,
2013-03-30 23:12:00,68.9,68.9,29.99,SE,143,11.4,21.4,100,0.00,CLR,,0.00,WeatherDisplay:10.37,2013-03-31 04:12:00,
2013-03-30 23:17:00,68.9,68.9,29.99,South,186,11.9,17.7,100,0.00,,,0.00,WeatherDisplay:10.37,2013-03-31 04:17:00,
2013-03-30 23:22:00,68.9,68.9,29.99,SSE,157,11.4,17.3,100,0.00,,,0.00,WeatherDisplay:10.37,2013-03-31 04:22:00,
2013-03-30 23:27:00,68.9,68.9,29.99,South,179,9.8,19.6,100,0.00,,,0.00,WeatherDisplay:10.37,2013-03-31 04:27:00,
2013-03-30 23:32:00,68.8,68.8,29.99,SSE,167,10.4,17.3,100,0.00,CLR,,0.00,WeatherDisplay:10.37,2013-03-31 04:32:00,
2013-03-30 23:37:00,69.0,69.0,29.99,SE,137,9.9,18.5,100,0.00,CLR,,0.00,WeatherDisplay:10.37,2013-03-31 04:37:00,
2013-03-30 23:42:00,68.8,68.8,29.99,South,172,12.4,19.6,100,0.00,CLR,,0.00,WeatherDisplay:10.37,2013-03-31 04:42:00,
2013-03-30 23:47:00,69.0,69.0,29.99,SSE,167,10.9,18.4,100,0.00,CLR,,0.00,WeatherDisplay:10.37,2013-03-31 04:47:00,
2013-03-30 23:52:00,68.9,68.9,29.99,South,174,11.5,20.7,100,0.00,CLR,,0.00,WeatherDisplay:10.37,2013-03-31 04:52:00,
2013-03-30 23:57:00,68.8,68.8,29.99,SE,140,12.1,19.6,100,0.00,CLR,,0.00,WeatherDisplay:10.37,2013-03-31 04:57:00,